Location: Recife
(8.0585°S, 34.8848°W)
Time: 21:17:59
(UTC-03:00)

Vanguard 3 - Pass Details

Date: 16 April 2026
Orbit: 507 x 3205 km, 33.4° (Epoch: 12 May)

Event Time Altitude Azimuth Distance (km) Brightness Sun altitude
Rises 15:56:22 0° 232° (SW) 7,070 12.5 18.6°
Reaches altitude 10° 16:01:36 10° 229° (SW) 5,869 12.1 17.4°
Maximum altitude 16:18:28 60° 152° (SSE) 2,419 9.5 13.3°
Drops below altitude 10° 16:28:25 10° 74° (ENE) 3,649 10.0 10.9°
Sets 16:30:53 0° 70° (ENE) 4,335 10.4 10.3°
